sat.trackr.live / text

‹ back to catalog

STARLINK-5531

NORAD 55383 · 2023-013BE

PAYLOAD ACTIVE UNKNOWN

§ Identity

Operator
Country
US
Launch date
2023-01-26
Launch site
AFETR
Launch vehicle
Mass (kg)
RCS (m²)

Purposes: comms

External: N2YO · Heavens-Above · Gunter

§ Orbital elements

Epoch: 2026-09-20T11:31:36.115968Z

Period
94.27 min
Inclination
43.0041°
Eccentricity
0.0001588
Mean motion
15.27587025 rev/d
Perigee alt
481.9 km
Apogee alt
484.1 km
Semi-major
6,861.2 km
B*
4.4116e-5
RAAN
268.6519°
Arg perigee
270.5289°
Mean anomaly
89.5381°
Rev number
20,163

§ Raw data

STARLINK-55311 55383U 23013BE  26263.48027912  .00000952  00000+0  44116-4 0  99902 55383  43.0041 268.6519 0001588 270.5289  89.5381 15.27587025201638

JSON: /api/v1/satellites/55383 · /tle

For live sub-satellite position, see the globe view (requires WebGL).

§ Visibility from observer

Set your observer location to see the next 7 days of passes ≥ 10°. The values pass through the URL so the page stays shareable.

No JS? Fill the form by hand. The geolocation button needs JavaScript.